Theta_e
323 322 322 322 321 321 322 322 322 322 321 317 313 312 310 308 305 301 301 299 298 302 302 301 302 306 306 307 308 310 308 311 310 305 305 305 304 310 311 310 311 310 309 310 309 307 306 306 307 309 312 312 312 314 311 309 309 309 310 312 312 310 310 309 308 312 315 312 310 308 308 308 308 307
323 322 322 320 320 320 322 322 322 322 321 319 313 311 310 309 306 303 302 299 299 301 301 301 301 304 306 307 308 308 307 314 308 305 304 303 303 309 309 308 305 305 306 306 304 304 304 306 308 310 311 312 310 309 309 308 308 309 312 312 312 312 311 309 310 312 311 311 309 309 308 307 308 308
323 322 322 319 319 320 321 322 322 322 321 321 318 312 309 308 307 305 302 298 299 303 301 301 304 304 305 307 307 308 307 312 308 303 302 303 307 310 307 306 305 305 305 303 303 305 304 305 306 308 310 311 310 310 310 308 309 311 312 311 311 312 312 311 311 311 311 311 311 310 308 308 308 308
323 322 321 320 320 320 320 321 322 322 321 320 320 317 310 307 305 304 303 300 300 302 303 303 303 304 305 306 306 305 307 311 310 303 302 303 308 307 303 306 305 305 304 304 304 308 308 305 306 308 310 311 311 310 310 308 310 311 310 309 310 310 311 310 310 311 310 309 309 309 308 308 308 308
322 322 321 321 320 320 321 322 323 323 321 321 319 318 314 310 306 304 301 299 299 302 304 304 303 304 305 304 304 304 305 307 306 306 302 302 303 303 301 302 305 304 303 303 303 303 304 304 307 308 307 310 310 308 306 305 306 306 307 306 309 309 310 309 308 309 308 309 309 308 307 306 306 305
322 320 321 321 320 321 322 321 323 323 322 321 320 317 316 313 308 305 302 299 300 300 302 302 303 303 304 301 302 303 303 305 306 303 303 303 302 302 300 300 301 303 304 303 302 302 302 302 303 304 303 304 305 306 304 303 303 304 304 301 306 309 310 310 307 307 307 309 307 306 305 304 304 303
321 321 321 321 321 322 321 321 322 322 322 322 321 319 317 315 311 306 303 301 300 301 301 302 302 302 302 301 301 302 303 305 307 305 303 303 304 303 301 300 301 302 303 302 301 302 302 302 302 302 302 303 303 303 303 303 303 302 303 300 302 304 307 308 306 307 308 308 306 304 303 302 302 303
321 322 321 321 321 321 321 320 320 319 319 319 319 317 315 314 310 307 304 304 302 301 301 301 303 302 301 301 301 302 302 302 305 306 304 303 304 303 303 301 301 302 303 302 302 302 302 302 302 302 302 302 302 302 303 303 302 301 301 301 300 302 303 305 303 305 307 307 305 304 302 302 303 303
322 322 322 321 321 320 320 318 318 317 316 317 316 314 311 311 309 309 305 303 304 302 302 302 302 303 302 303 302 302 300 299 301 304 305 305 304 304 304 303 304 305 304 303 302 301 301 302 302 302 302 302 302 302 302 302 302 301 301 301 300 301 302 304 304 305 306 305 305 303 302 302 303 304
323 322 322 321 321 320 320 318 316 315 315 315 313 313 312 308 307 306 304 304 304 304 303 303 302 301 302 301 300 302 301 299 299 300 303 304 305 305 304 304 304 304 304 303 303 303 302 302 302 302 302 302 301 301 301 301 301 301 301 301 300 300 301 302 303 303 302 303 303 303 302 301 302 303
323 322 322 321 321 321 319 318 317 315 314 315 312 313 311 307 307 307 304 305 304 302 302 301 303 303 303 302 301 301 302 301 300 299 299 301 304 305 305 305 305 305 304 303 302 302 302 303 303 302 301 301 302 301 301 301 301 300 300 299 298 298 299 300 300 303 302 302 302 301 300 300 302 302
322 322 322 322 321 320 319 319 317 315 315 313 311 310 311 306 307 307 305 305 304 303 302 302 302 300 302 301 303 303 302 300 300 302 300 299 300 302 305 306 305 306 304 303 304 303 302 301 302 302 302 302 302 302 302 302 302 301 299 298 298 299 299 299 299 301 301 301 300 298 297 298 300 300
320 320 318 317 318 322 322 315 314 314 313 313 310 309 308 305 307 306 304 305 304 303 303 302 303 301 300 301 302 299 299 300 301 302 302 301 302 302 302 304 306 306 304 304 304 303 302 301 300 300 300 300 302 302 302 302 303 301 299 299 299 299 300 299 300 300 300 301 300 298 297 297 298 298
315 315 314 316 318 315 313 309 306 305 306 310 312 311 310 308 308 307 306 305 305 305 303 303 303 301 300 301 301 301 301 303 303 302 301 300 302 300 301 301 303 305 305 304 302 304 304 302 301 299 299 301 302 301 301 301 301 301 299 299 299 299 298 299 299 300 299 299 299 298 297 296 297 297
310 308 309 309 311 309 307 304 300 300 300 301 302 305 308 311 310 308 307 306 306 304 305 303 304 302 301 303 303 303 304 304 303 301 300 302 302 301 299 300 302 303 305 303 303 304 303 301 301 301 300 301 300 300 301 301 301 300 300 299 299 299 299 299 298 298 298 298 298 297 296 296 296 297
309 311 310 309 311 312 309 304 303 301 297 296 296 296 296 295 296 299 306 304 303 303 305 304 304 304 304 306 304 305 305 306 305 305 304 303 303 302 301 299 302 304 303 303 300 302 301 299 300 300 301 301 301 301 301 300 300 300 300 299 299 299 299 299 298 298 298 297 297 296 296 296 296 295
310 308 306 303 302 304 311 311 307 303 303 301 301 302 302 301 298 295 296 299 305 303 302 302 303 303 304 305 305 307 309 308 307 305 305 304 303 304 302 303 302 303 302 300 299 299 300 297 298 298 301 301 301 301 300 300 300 300 299 299 299 298 298 298 298 298 297 298 298 297 297 297 296 296
307 305 302 301 299 299 301 302 308 313 313 312 313 313 311 308 303 298 297 296 297 302 306 305 305 305 305 306 304 307 306 308 307 306 306 303 303 303 304 305 304 304 303 302 299 297 298 297 297 297 299 301 301 301 300 299 299 299 299 299 298 298 298 298 297 297 297 297 297 297 297 297 296 296
299 298 297 296 296 296 297 299 303 307 307 307 307 308 309 307 303 300 299 298 298 299 300 300 301 301 303 304 304 304 304 304 307 308 308 308 308 309 305 305 306 306 305 301 301 302 301 298 297 298 300 301 300 301 300 299 299 299 299 298 298 298 297 297 296 296 296 296 296 296 295 296 295 295
297 297 296 295 295 295 295 295 294 297 300 300 299 299 301 304 302 300 300 295 295 297 297 297 297 298 298 299 300 300 300 301 302 304 305 304 304 304 304 304 302 302 302 303 302 301 304 299 302 303 303 303 302 303 301 300 300 299 298 298 298 297 297 296 296 296 296 296 296 295 295 294 294 294
298 297 295 294 294 293 293 293 292 293 296 296 296 295 295 298 298 296 297 295 294 293 293 293 294 294 294 295 295 295 296 299 300 302 301 301 304 304 303 304 303 306 302 301 307 306 307 302 303 304 302 304 303 303 303 304 301 300 299 298 298 297 297 296 296 295 296 295 295 295 294 294 294 294
297 300 301 299 293 293 293 291 292 293 296 295 295 294 294 295 294 293 294 297 296 295 295 295 295 295 294 295 296 296 295 295 300 304 300 303 302 303 299 301 303 305 305 305 305 304 308 307 302 304 302 299 301 304 305 304 304 301 299 298 298 297 297 296 295 295 295 295 295 294 294 294 294 294
294 294 295 297 295 294 292 290 291 292 295 295 295 293 293 292 292 292 292 294 294 295 296 297 298 298 298 299 298 299 296 297 302 302 303 303 301 301 301 301 302 302 299 302 306 307 307 309 307 306 304 303 303 303 301 302 301 300 299 299 298 297 296 295 294 294 295 295 295 295 295 294 294 292
294 294 293 294 290 290 290 290 290 290 292 294 293 293 293 292 292 292 292 294 293 293 293 294 295 295 296 296 297 297 298 299 300 299 301 302 303 301 301 301 300 300 301 303 306 308 308 307 306 301 306 302 296 299 297 297 296 295 296 296 296 295 296 295 294 295 295 295 295 295 295 294 294 293
294 294 293 292 292 290 290 290 290 290 291 293 294 293 293 293 293 292 292 293 294 292 294 294 295 296 296 297 297 298 298 298 299 300 300 300 301 302 300 300 300 301 303 305 303 307 307 306 306 302 302 302 300 302 297 293 294 293 294 295 293 293 294 293 293 294 294 294 294 294 294 294 294 294
295 294 293 293 291 290 290 290 290 290 291 292 295 292 290 289 290 293 293 292 292 293 294 294 295 296 297 297 298 298 299 299 300 300 301 301 302 302 302 301 300 299 301 305 300 305 305 305 306 304 302 299 301 300 299 295 291 292 292 292 293 293 293 293 293 293 294 294 294 294 294 294 294 294
295 295 294 295 292 290 290 290 290 291 291 293 291 289 289 289 289 291 293 293 295 295 295 295 295 294 295 295 295 296 296 297 297 298 298 299 299 299 299 299 298 299 301 299 299 300 303 302 299 303 303 303 303 301 297 296 294 293 291 292 291 292 293 293 293 293 294 294 294 294 293 293 293 293
295 294 294 293 290 290 291 291 291 291 291 292 290 290 290 290 291 294 294 294 294 293 292 293 292 292 293 293 293 293 294 295 295 296 297 297 296 296 297 296 296 296 295 295 295 296 299 302 301 300 301 301 301 300 297 294 293 293 291 291 291 291 292 293 293 294 294 294 294 293 292 292 293 292
294 291 290 291 291 292 292 292 292 292 291 291 291 292 292 295 294 294 294 293 293 291 290 290 291 291 291 290 291 293 293 293 294 294 295 295 295 294 294 294 294 295 296 296 294 294 294 296 299 296 293 294 298 297 296 298 295 291 291 290 289 291 291 292 293 293 294 294 293 292 292 292 291 292
290 291 292 292 292 292 293 295 294 294 293 291 292 292 294 294 293 293 292 292 291 290 289 289 289 289 290 291 292 292 291 291 291 291 291 291 292 293 293 293 293 293 293 293 292 293 293 293 294 292 292 292 292 295 296 296 295 294 292 292 290 291 292 292 292 293 293 292 292 292 292 292 292 291
294 294 294 292 291 291 291 291 292 292 292 293 294 293 293 293 293 292 291 291 290 289 289 288 289 289 290 291 289 289 289 289 289 290 289 289 289 290 291 290 290 291 292 293 292 290 292 292 292 291 293 292 290 292 294 295 295 294 293 292 291 288 289 291 291 291 292 292 290 289 290 290 291 292
294 294 292 292 294 293 294 293 293 292 292 292 291 292 292 291 292 293 292 291 289 288 289 288 288 287 288 287 287 287 287 286 287 288 288 288 288 289 289 288 287 288 290 291 292 291 291 290 291 292 293 293 293 292 292 291 293 293 291 290 290 288 290 291 290 290 292 291 290 289 290 291 291 291
293 292 292 291 291 291 289 289 290 290 290 289 290 290 290 290 290 289 288 287 287 287 286 286 285 284 285 285 285 285 285 286 286 287 287 287 287 287 287 286 287 287 288 289 290 291 291 290 291 292 293 294 294 294 293 290 292 292 291 290 291 290 290 290 291 291 291 291 290 290 289 290 291 291
290 289 288 288 288 288 288 288 287 287 287 287 287 286 287 287 288 287 287 286 285 284 284 284 283 283 282 282 283 283 283 284 285 286 286 285 285 284 284 284 286 287 286 287 288 289 290 290 292 293 293 292 293 292 291 291 291 292 290 288 288 289 290 292 292 292 292 291 291 289 289 289 290 290
289 288 288 287 287 287 288 287 286 286 286 285 285 285 284 285 285 284 285 285 283 283 283 282 282 281 280 281 281 281 282 282 283 284 284 283 284 284 283 284 284 285 286 286 287 289 290 290 291 291 290 291 290 291 294 292 290 289 288 287 287 288 289 291 292 292 292 291 291 288 287 288 289 290
287 287 287 287 287 287 287 286 286 286 285 285 285 284 284 284 284 284 284 283 283 282 282 281 281 281 282 283 282 282 282 282 282 282 283 283 283 283 284 284 284 284 285 286 288 290 289 290 289 288 287 287 287 286 285 292 292 290 286 285 288 288 290 291 291 292 291 290 290 289 287 286 287 289
287 287 287 286 286 286 286 285 285 286 286 285 285 286 285 284 283 284 283 283 282 282 281 281 281 281 283 283 284 284 284 283 283 283 283 283 283 282 283 283 284 285 285 288 289 291 291 290 289 288 287 286 285 284 284 287 289 292 291 289 288 290 290 290 290 289 290 291 289 288 287 286 287 289
286 286 286 286 286 286 286 285 285 286 286 286 286 285 285 284 283 283 283 282 282 281 282 281 281 281 282 284 284 284 284 285 285 284 284 283 283 283 283 284 285 286 287 288 289 289 290 289 288 288 287 285 283 284 284 286 286 289 290 290 287 287 288 289 288 288 287 288 288 287 287 286 287 288
287 286 286 286 286 286 286 287 287 287 287 286 285 284 283 282 282 282 282 282 281 282 282 282 282 281 282 283 284 284 284 284 284 284 284 283 284 284 285 285 286 287 287 287 288 288 289 288 288 287 287 286 285 285 286 285 286 287 288 290 289 287 287 288 287 287 287 286 286 286 286 287 288 288
286 286 286 286 287 287 287 288 287 287 286 285 284 283 282 281 282 282 282 282 282 281 282 281 282 282 281 282 284 285 285 284 284 284 284 285 285 284 284 284 285 285 286 286 286 287 287 287 288 287 287 287 286 286 285 286 286 286 287 289 290 289 287 287 286 287 287 287 286 286 285 286 285 286
286 286 285 286 287 287 287 287 287 287 285 284 283 284 283 282 283 282 282 281 280 280 280 279 278 278 278 280 283 284 284 284 284 284 284 284 285 285 285 285 283 284 285 285 285 286 286 287 288 286 288 287 286 287 288 286 285 285 286 287 289 289 289 290 289 287 286 286 286 286 285 284 284 285
285 285 285 287 287 288 287 287 287 287 286 285 283 284 283 283 283 285 281 280 279 278 277 278 277 279 279 279 280 283 284 283 283 284 284 284 284 285 285 285 285 284 283 283 284 285 286 288 287 288 287 286 286 286 285 285 285 286 285 286 286 288 289 289 289 290 289 287 286 285 284 284 284 283
286 285 285 286 287 288 287 287 287 286 286 285 284 283 282 281 279 278 276 277 276 277 277 277 276 276 276 277 277 278 281 283 284 284 284 284 284 284 285 285 285 285 285 285 285 284 284 285 285 285 285 285 284 285 285 285 285 285 285 286 286 286 287 288 288 288 288 289 288 286 284 284 283 281
287 286 286 287 288 288 287 287 286 286 286 285 285 284 283 280 280 279 277 277 276 277 276 277 277 276 276 277 276 276 278 280 280 281 282 283 283 283 284 284 284 285 285 285 285 286 285 285 285 284 285 284 284 284 285 285 285 285 285 285 285 286 286 286 287 287 287 287 287 287 288 287 286 287
286 287 287 287 287 287 286 285 285 284 282 282 283 283 283 281 281 278 278 276 276 277 276 277 277 277 277 277 277 280 280 283 280 278 279 279 280 282 282 282 282 283 283 283 284 285 286 286 286 286 286 286 285 285 286 286 286 286 285 285 285 285 285 285 286 287 286 286 286 286 286 286 286 286
Wind_Speed
6 5 6 6 6 5 4 4 5 5 6 6 7 7 9 8 8 5 6 3 4 4 2 5 4 5 3 3 3 5 5 6 6 4 4 4 4 6 8 8 8 7 7 7 7 7 6 6 6 6 5 4 4 3 5 5 5 4 3 2 2 3 3 4 4 3 4 5 6 5 4 3 3 2
5 4 4 3 5 4 5 5 4 5 6 7 7 6 5 7 10 6 8 5 3 6 4 2 4 5 5 5 4 4 5 7 7 4 5 4 4 7 8 8 8 8 8 8 8 8 8 7 7 7 7 7 7 7 7 7 6 5 5 5 5 4 3 3 3 3 4 5 6 5 4 3 2 2
5 5 5 3 3 4 5 4 3 4 5 5 6 5 5 4 3 8 6 5 4 5 8 5 3 7 7 6 4 4 4 6 6 5 4 4 6 8 6 9 9 8 9 8 8 8 9 9 10 10 10 10 10 10 9 9 8 8 8 7 6 7 6 6 6 6 6 5 6 5 3 2 2 3
5 5 5 4 5 4 4 4 4 4 4 4 5 6 6 4 4 3 6 8 8 6 6 6 5 5 8 7 7 4 4 4 7 4 4 5 7 5 5 8 9 9 10 10 9 10 10 11 11 12 12 13 13 11 11 11 10 10 8 8 9 8 8 7 6 6 5 4 3 3 3 2 2 2
5 5 5 4 4 4 5 5 5 4 5 4 5 5 5 6 5 6 3 5 2 1 1 3 4 6 6 5 5 7 5 5 4 5 4 5 6 6 6 6 10 11 11 11 12 12 12 13 13 14 14 14 13 13 12 11 11 10 10 10 9 9 8 8 6 5 5 5 5 4 4 3 2 1
4 4 4 4 3 4 5 4 5 5 5 6 6 5 6 6 6 6 5 4 6 7 1 3 3 4 5 5 5 8 8 7 5 6 6 5 6 7 7 7 8 14 13 14 14 15 15 16 16 16 15 14 13 12 12 11 11 11 11 11 10 9 9 8 7 6 7 7 6 6 5 3 2 0
4 4 5 5 4 3 4 4 5 4 5 5 6 6 5 6 6 6 6 6 6 8 5 3 5 6 6 6 8 8 7 8 9 8 8 8 7 6 6 7 6 12 16 16 16 17 17 17 16 15 14 13 13 13 12 11 11 12 11 11 10 10 10 10 9 8 9 9 8 7 5 4 2 2
6 5 5 5 5 4 5 5 4 3 4 5 5 5 5 5 6 7 6 7 8 6 7 5 8 7 7 6 3 6 4 6 7 8 6 4 6 6 6 7 7 9 14 16 17 17 16 15 15 15 15 14 14 13 12 12 12 11 11 11 11 11 11 11 10 10 10 10 10 8 6 4 4 3
7 6 6 6 5 6 6 4 4 3 4 4 4 5 5 5 5 4 7 5 5 7 9 6 3 4 4 2 2 6 8 6 5 4 6 7 7 6 6 6 8 10 12 14 17 16 15 15 15 15 15 15 15 14 14 13 13 12 11 12 12 12 12 12 11 11 11 10 10 9 7 6 4 4
6 6 6 6 6 6 7 6 4 4 4 3 3 4 3 4 4 4 5 5 5 9 9 8 5 4 6 4 4 7 7 7 7 6 5 3 5 5 6 8 7 6 7 6 9 11 13 15 15 15 14 15 15 14 13 14 13 13 13 13 13 14 14 14 13 13 12 11 11 10 9 7 6 5
5 5 5 6 6 6 5 5 5 4 3 4 4 5 4 4 4 4 5 6 6 6 6 4 6 7 5 5 6 5 6 4 4 6 5 7 7 6 8 9 8 7 8 10 13 12 12 13 11 14 16 15 15 15 14 14 14 14 14 14 14 14 14 14 14 14 13 12 12 11 10 8 7 6
6 6 5 5 5 5 5 5 4 4 4 4 4 1 3 4 5 6 5 6 6 6 5 7 6 5 6 4 1 2 4 4 5 6 7 10 8 9 9 11 10 8 7 9 8 10 11 11 13 14 14 16 17 17 15 16 15 15 15 15 15 15 15 15 15 14 14 13 13 12 11 9 7 6
5 5 4 3 4 5 7 7 6 6 7 6 5 1 4 5 6 5 4 6 7 6 7 6 3 5 5 6 5 5 6 9 12 10 8 8 8 7 5 8 8 8 7 8 8 7 8 8 8 8 8 11 14 15 17 14 16 17 17 17 16 16 16 16 15 15 15 14 14 13 12 11 9 9
3 4 4 2 3 6 7 8 9 10 6 3 5 6 6 6 5 6 6 5 6 6 7 7 7 6 7 8 7 7 8 9 5 1 5 8 10 3 5 6 6 7 7 7 8 11 7 8 8 6 9 10 9 10 10 12 14 16 19 18 17 18 17 17 17 16 16 15 14 13 13 12 11 9
5 6 5 4 6 6 6 5 8 8 9 9 9 8 7 7 7 7 6 4 5 5 4 3 5 7 6 4 4 6 4 3 6 6 4 7 4 4 5 8 7 3 9 8 9 11 7 7 10 10 10 11 8 9 12 18 19 20 18 19 18 19 19 18 18 18 16 15 14 14 13 12 11 10
7 6 6 4 4 5 5 2 4 7 10 12 13 15 14 15 15 9 4 3 3 4 5 4 4 5 3 2 3 3 2 2 1 4 6 8 8 8 7 6 7 5 6 8 6 10 3 5 8 9 10 10 9 12 16 19 19 19 19 18 19 19 19 19 19 19 17 16 15 14 14 13 12 10
7 6 6 6 6 5 8 3 3 3 7 9 13 14 16 16 16 16 16 14 6 2 4 5 4 1 1 0 0 1 2 0 2 2 3 4 5 6 5 7 5 7 4 4 4 8 5 5 6 8 11 9 8 10 14 18 18 19 19 20 19 19 19 20 20 19 19 18 16 15 14 13 12 11
7 5 6 7 6 5 5 5 4 5 7 7 9 9 8 8 11 13 14 13 14 10 7 6 6 3 3 3 3 4 3 4 3 1 2 2 4 4 6 5 6 4 5 8 5 4 6 5 6 9 11 8 7 8 12 17 17 18 19 19 18 18 19 19 19 19 19 18 17 15 15 14 12 11
8 6 7 8 7 6 6 6 4 6 7 8 8 8 8 7 7 8 8 7 6 5 5 5 4 3 2 2 2 3 2 1 1 1 3 4 4 4 3 3 3 3 6 5 3 7 4 2 5 8 9 8 7 7 10 13 16 19 19 13 9 9 9 12 16 18 18 18 17 16 15 13 11 10
7 6 6 7 8 7 7 8 11 8 7 8 8 7 5 5 6 7 4 5 6 4 4 4 3 2 2 1 0 1 1 3 2 3 4 3 2 4 5 6 3 3 3 4 5 4 5 3 6 7 6 6 8 6 4 8 10 10 7 8 14 18 20 19 19 20 19 18 17 14 11 8 7 8
7 7 6 6 7 8 7 8 11 10 11 8 7 6 5 4 5 6 5 4 6 7 6 7 5 4 5 7 6 5 2 0 2 1 4 6 5 6 7 7 5 6 3 1 5 4 6 3 6 7 5 5 6 7 8 7 10 14 16 18 18 20 19 21 20 18 17 12 10 9 8 7 7 4
8 8 12 8 7 8 6 10 11 10 9 8 6 6 6 6 6 6 5 3 2 4 4 6 6 6 9 10 9 10 11 9 3 4 4 4 4 5 3 5 5 7 5 6 4 3 8 5 3 5 4 1 3 5 5 6 7 10 10 12 13 13 14 15 15 14 13 15 15 13 13 10 5 0
6 7 8 11 9 7 7 12 12 12 9 8 6 5 7 7 7 4 5 7 9 10 10 10 11 10 12 9 7 8 12 11 8 3 1 3 3 4 5 5 6 7 1 3 1 3 6 5 3 2 5 6 4 2 2 4 3 3 3 2 5 10 13 15 14 13 13 10 8 8 8 8 7 4
6 6 5 7 9 9 9 9 10 11 10 8 5 6 7 6 4 3 3 4 5 5 5 6 6 6 6 7 7 7 8 8 6 6 5 4 3 2 3 4 3 4 3 2 2 6 6 5 7 1 4 5 5 2 1 2 2 1 0 1 2 4 7 9 11 16 15 14 13 11 9 5 4 3
6 6 6 4 7 9 9 10 10 10 10 8 6 6 5 3 0 2 4 5 6 4 4 5 5 7 6 7 6 7 7 7 6 6 5 4 4 5 5 5 5 5 4 4 5 4 6 5 8 3 4 2 4 6 3 1 1 1 1 3 2 3 6 7 8 10 15 16 15 14 14 13 13 7
6 5 4 4 5 7 8 8 9 9 8 7 5 5 5 4 5 2 2 1 3 4 6 6 7 7 7 7 8 7 7 7 7 6 6 5 5 5 3 3 5 6 6 6 8 6 6 6 6 6 5 4 6 5 6 5 1 2 0 1 3 5 6 7 7 8 8 7 7 9 10 13 12 10
5 3 3 4 6 8 8 9 9 9 8 7 5 6 6 5 4 3 4 4 6 7 7 7 7 7 7 7 7 7 7 7 6 6 5 5 4 4 4 4 3 6 7 6 4 5 5 5 3 6 7 6 8 6 5 5 3 0 1 1 1 4 5 7 9 9 8 9 8 12 12 12 11 11
5 5 5 5 7 9 11 13 12 11 10 8 8 7 7 7 5 6 7 8 7 7 8 8 7 7 6 6 7 7 6 6 6 6 5 6 4 4 5 5 5 5 5 4 4 4 4 6 6 5 5 6 7 7 6 3 4 4 3 1 2 4 4 5 6 6 6 5 5 5 5 5 5 7
5 5 6 9 11 13 14 15 14 14 14 15 14 13 13 11 8 8 8 7 8 8 7 6 6 6 6 4 3 4 4 4 4 5 6 5 4 4 5 4 4 4 4 4 4 4 3 5 7 5 2 5 5 6 4 6 3 3 3 3 2 4 6 6 5 7 7 7 7 7 8 7 6 6
8 11 15 16 14 12 10 10 9 9 9 14 15 14 12 8 7 6 7 6 7 6 5 5 5 5 5 5 5 4 4 5 7 6 7 8 8 8 8 9 7 5 6 5 3 4 5 6 6 4 3 4 3 5 6 6 7 6 4 6 2 2 5 5 5 5 7 7 8 8 6 6 7 8
9 12 12 11 12 11 15 14 12 10 10 11 10 9 8 7 7 7 7 7 6 5 5 4 5 5 5 5 6 8 7 7 7 6 6 6 7 8 8 7 8 7 7 6 6 3 3 5 5 3 4 4 2 5 5 3 6 6 4 4 5 5 4 6 6 5 5 5 5 5 5 6 5 7
6 7 8 10 8 8 9 8 8 8 8 8 7 7 6 6 6 6 7 6 5 4 3 2 2 3 5 6 6 6 6 6 6 6 6 6 7 6 7 7 7 7 8 7 7 6 4 3 4 4 2 4 5 4 0 2 5 5 4 2 3 2 4 9 8 6 5 6 5 5 5 6 7 6
6 8 9 8 9 8 8 7 7 7 7 7 6 6 6 5 5 5 5 6 5 4 4 6 5 5 5 5 5 6 6 7 7 6 7 6 6 7 5 5 7 7 8 8 8 9 7 5 2 1 2 2 1 1 1 4 5 3 3 2 4 2 3 5 7 6 6 6 6 6 5 5 6 6
9 8 8 7 7 7 6 7 6 6 6 6 7 6 6 6 6 6 5 5 4 4 5 4 5 6 6 6 6 6 6 7 7 7 5 6 6 4 5 6 7 7 6 7 7 7 7 4 4 3 1 2 2 4 2 1 5 3 2 4 4 3 1 4 5 7 7 5 7 6 4 3 1 2
8 7 8 6 7 6 7 6 6 6 6 5 6 5 5 5 5 4 5 4 4 5 6 6 5 4 3 4 4 4 5 5 6 7 6 5 5 4 4 5 6 7 7 7 8 7 5 5 5 5 4 4 3 1 4 3 1 3 2 1 2 5 4 3 5 5 6 5 6 6 5 3 1 0
7 6 7 6 6 6 6 5 5 5 5 5 4 4 5 5 5 5 6 4 5 5 5 3 3 2 2 2 3 3 4 4 4 5 6 6 7 7 7 6 6 7 6 6 6 6 3 4 4 3 4 5 3 5 2 4 5 2 1 1 1 2 3 4 4 5 6 6 6 7 5 4 4 3
7 6 6 5 4 5 6 5 5 4 4 4 5 5 5 5 4 5 2 1 3 3 2 1 2 3 3 4 3 3 4 5 6 6 6 6 6 5 6 7 7 6 6 6 6 6 5 5 4 3 4 4 4 5 5 5 6 9 3 2 2 2 5 5 6 6 5 5 5 4 4 4 3 4
7 5 6 5 5 4 5 5 4 4 4 5 5 5 5 3 2 1 0 2 3 2 2 3 3 3 4 4 5 5 5 5 5 5 5 5 6 7 6 6 6 6 6 6 6 7 6 6 7 6 5 4 4 4 3 4 4 7 11 4 3 3 4 7 5 5 4 5 5 2 3 3 2 3
6 6 6 5 5 4 5 4 4 5 5 5 5 4 3 2 1 1 2 2 2 3 4 4 4 4 5 5 5 5 5 5 5 6 6 6 5 6 6 6 6 6 6 7 7 7 7 7 6 6 5 5 3 3 2 0 3 4 8 12 3 4 4 4 5 4 5 4 3 4 5 3 6 8
5 5 5 5 5 5 5 4 5 5 5 4 3 3 3 2 2 2 4 4 4 3 4 5 5 5 5 4 3 2 3 4 5 5 6 6 6 6 6 5 5 5 5 6 6 6 6 6 6 6 5 4 3 3 3 1 0 3 4 8 12 5 2 3 3 4 3 2 4 4 4 2 2 0
5 6 5 5 5 5 5 4 3 3 4 3 3 3 3 3 4 4 3 4 4 5 6 5 4 2 2 2 3 5 6 6 5 6 6 6 6 6 6 6 5 6 5 5 5 6 6 6 7 8 4 3 2 1 1 1 1 3 4 5 8 10 10 7 2 4 3 2 3 5 4 3 2 2
6 5 5 4 4 4 3 4 3 3 3 3 3 3 3 4 4 5 5 5 5 3 2 2 2 2 3 4 4 4 5 5 6 6 6 5 6 6 6 5 5 5 5 5 6 6 7 6 6 6 5 4 4 3 1 1 1 1 2 3 3 6 8 10 10 5 5 5 5 5 3 3 3 1
5 4 4 3 3 4 4 4 4 3 3 3 3 2 3 4 5 5 5 3 2 1 2 3 3 4 4 4 4 2 3 4 4 4 5 5 4 5 6 6 5 4 4 4 5 5 6 6 6 6 5 5 3 1 2 3 3 0 1 1 2 4 4 6 6 6 7 8 4 1 3 4 4 1
4 4 3 3 4 4 4 4 3 3 4 2 2 1 1 2 1 1 1 1 2 3 4 4 4 4 5 4 4 2 1 2 2 2 4 4 4 4 4 5 5 5 4 4 5 5 5 6 5 4 5 5 3 4 4 2 2 1 1 1 1 2 3 4 4 4 5 8 9 8 5 5 4 4
4 4 3 3 2 2 3 3 5 4 4 2 1 1 0 1 0 2 4 4 4 5 4 4 4 5 4 4 4 6 5 3 3 3 3 4 4 4 3 3 5 5 5 5 5 6 5 5 5 4 3 4 3 3 3 1 0 1 2 3 3 3 3 3 2 1 1 2 8 8 7 7 7 7
Wind_Direction
167 163 166 176 172 180 174 165 159 148 138 152 160 162 156 159 147 158 171 190 140 218 226 147 205 170 185 189 196 160 160 158 151 146 147 153 161 166 158 155 155 158 163 164 160 155 155 154 156 162 160 157 168 170 173 172 175 171 166 153 135 124 117 101 76 83 121 121 109 110 116 123 120 108
166 159 164 164 171 172 173 182 162 152 152 149 166 169 166 158 163 165 171 202 194 176 223 182 162 175 186 178 193 187 169 167 151 154 159 165 176 180 170 169 171 174 177 176 175 176 177 181 183 187 191 189 191 191 193 197 199 198 194 183 168 157 155 151 145 131 126 143 155 155 154 157 147 119
159 162 168 165 167 172 185 180 161 148 156 153 155 163 149 173 161 159 140 137 243 176 186 226 190 167 177 175 177 180 176 170 159 161 169 177 185 182 186 184 184 187 188 186 187 189 196 200 201 204 205 205 204 202 203 207 209 207 205 190 188 184 181 183 192 184 184 178 178 162 144 142 128 96
163 161 169 175 169 173 174 184 182 159 167 159 145 155 165 165 131 139 155 164 189 207 189 178 161 175 163 169 169 178 171 176 169 172 183 183 179 184 198 198 197 197 197 198 198 202 204 207 211 214 215 214 212 210 209 207 211 210 207 194 197 196 192 189 198 200 188 184 188 158 143 134 114 90
161 167 176 183 181 164 173 192 185 166 162 159 154 152 151 160 160 148 146 150 175 177 77 134 168 156 148 170 186 167 173 174 184 182 195 183 182 194 197 202 206 206 206 206 208 212 213 212 216 218 219 219 216 213 210 209 211 213 207 201 202 199 196 193 195 197 193 185 176 156 155 142 132 109
169 165 174 196 195 181 181 186 188 176 161 160 155 171 162 163 176 178 143 161 154 198 171 111 86 150 176 163 185 177 177 192 183 187 196 202 200 198 199 201 212 212 212 211 213 215 216 217 218 219 220 222 222 218 213 210 212 216 212 206 207 203 203 196 188 196 196 181 163 159 152 149 159 174
171 171 183 200 198 183 188 196 200 172 175 170 175 177 173 172 182 188 178 147 171 181 203 155 151 174 189 185 189 196 198 188 183 187 198 202 205 216 205 211 218 216 215 216 217 218 219 219 220 221 223 223 225 223 218 211 213 220 216 210 212 209 208 200 192 198 193 177 169 163 162 177 193 222
182 185 182 200 193 184 188 200 201 190 168 179 180 173 180 171 184 187 182 179 159 175 152 206 181 184 174 225 210 189 182 189 196 203 205 208 215 217 215 219 227 227 223 226 227 228 228 226 225 224 224 224 224 223 219 213 216 219 217 213 214 215 212 204 199 198 195 180 171 168 175 182 207 223
183 180 189 189 184 178 184 198 193 186 172 175 169 180 174 179 186 169 178 182 169 146 181 186 183 170 208 201 168 178 179 203 217 217 213 210 214 222 229 229 237 243 236 234 239 241 239 237 234 231 229 226 225 221 217 214 215 215 214 214 213 213 212 207 202 199 191 179 176 177 175 189 210 218
181 183 189 180 182 176 183 189 189 185 190 169 174 190 185 173 175 171 162 157 180 168 183 161 155 171 186 192 196 192 193 184 198 219 232 233 223 218 237 238 238 233 232 234 240 245 250 250 246 244 241 238 234 229 222 218 216 214 214 214 214 212 210 206 202 200 190 184 181 179 175 183 197 209
180 182 182 180 180 178 171 163 180 180 184 168 180 190 188 170 161 179 175 160 174 172 154 168 183 177 197 183 194 201 191 201 211 208 202 241 230 214 217 241 238 231 238 236 232 233 234 237 237 238 241 243 242 237 231 227 222 217 215 214 214 214 211 208 204 200 193 188 183 179 179 185 192 204
177 180 182 178 172 161 161 159 171 149 154 158 161 204 145 161 158 178 171 157 157 156 165 170 180 192 179 221 252 105 140 185 237 220 196 217 224 223 222 225 229 232 226 244 240 234 235 245 242 244 243 242 241 238 236 232 226 222 218 215 213 213 212 210 206 201 196 192 186 183 181 184 184 189
172 173 148 134 145 157 161 162 163 166 154 146 134 167 147 151 159 149 159 174 157 167 167 189 176 152 180 206 175 161 178 197 210 212 184 223 232 232 242 250 234 229 221 239 244 243 216 229 232 226 236 239 234 239 233 236 230 225 220 215 211 210 211 209 206 203 199 196 191 187 185 187 187 191
104 73 73 63 113 138 141 142 146 141 144 121 128 153 135 132 133 142 145 155 160 154 162 184 170 174 198 205 197 191 209 211 235 145 184 221 239 229 256 285 253 218 215 233 243 245 225 211 239 215 233 242 215 232 224 228 224 223 220 215 210 209 208 206 204 203 201 198 194 192 190 191 191 192
101 83 76 79 68 58 45 67 91 105 106 101 99 97 103 117 127 129 123 146 155 142 139 154 160 179 199 226 198 208 216 208 199 210 196 224 261 238 233 257 292 233 194 215 230 253 229 182 227 233 232 240 222 224 229 230 226 225 219 214 210 208 206 203 203 202 199 197 195 194 193 193 193 194
105 98 86 65 63 74 90 62 46 66 73 74 71 70 68 65 59 63 109 143 99 110 120 118 144 126 167 179 165 176 137 219 219 210 190 204 216 226 222 228 236 259 178 203 212 247 245 169 229 246 242 238 229 226 229 230 227 226 224 216 214 210 205 203 202 200 197 196 195 195 195 195 195 197
101 100 91 70 45 38 48 57 73 86 72 71 80 82 73 62 64 64 57 50 62 129 108 137 144 105 183 62 299 339 336 135 178 186 230 237 225 217 218 232 252 278 187 174 225 247 256 160 225 238 251 245 236 240 238 235 230 227 223 220 216 211 206 204 202 198 196 195 193 194 195 196 197 198
82 81 95 88 63 32 34 32 49 81 81 76 72 70 67 66 54 55 54 56 54 57 64 68 68 15 41 35 347 340 4 25 350 348 253 202 203 204 213 224 218 249 160 185 188 237 256 205 201 232 251 246 239 236 238 233 232 229 228 223 218 213 210 206 202 199 196 193 192 191 194 197 196 199
85 86 89 90 88 65 52 32 51 81 84 84 78 75 70 67 64 55 49 46 48 59 75 85 98 54 49 60 8 331 346 2 293 259 268 281 280 288 280 284 250 267 211 202 153 249 251 175 200 240 247 252 245 238 247 238 233 233 233 235 247 253 245 226 214 204 198 192 189 188 195 196 196 204
73 74 79 88 79 72 64 40 57 75 89 79 80 77 70 67 60 52 45 74 59 60 77 80 74 65 47 90 312 282 291 316 308 313 305 322 350 349 332 304 305 282 287 191 191 255 262 211 208 254 246 257 261 255 258 261 251 253 245 217 214 214 211 215 217 211 201 192 185 185 187 182 200 224
71 64 60 68 77 67 56 35 56 67 86 81 79 84 79 72 59 34 9 30 51 49 79 63 59 71 39 22 12 20 40 83 219 282 360 345 340 356 336 312 328 301 324 279 201 244 275 205 211 261 270 232 247 249 238 238 218 212 211 216 215 216 212 211 213 209 202 177 161 166 158 189 215 255
68 61 62 66 67 67 55 41 50 52 75 77 77 78 73 53 41 15 358 9 68 76 111 60 50 54 30 22 13 13 6 10 41 60 12 306 355 327 315 286 299 303 320 280 208 262 265 286 221 254 291 327 245 230 238 238 247 240 235 227 227 224 218 210 206 199 182 172 182 167 167 171 178 90
77 64 49 54 61 68 60 53 49 48 64 77 69 82 79 65 48 354 350 13 9 7 12 9 9 10 9 11 11 3 5 12 23 38 316 314 8 323 317 306 314 320 306 285 340 271 294 311 284 309 318 298 274 285 299 287 286 276 268 243 221 218 205 201 189 174 163 162 168 168 164 167 157 148
70 67 62 53 56 62 63 64 62 57 61 80 74 68 71 71 43 343 14 27 26 14 19 357 6 0 356 6 13 15 18 18 21 24 23 25 18 352 305 302 279 272 289 298 308 289 294 292 290 238 204 261 292 285 356 326 334 2 53 182 251 193 173 153 145 149 160 172 171 163 161 162 164 153
87 72 64 60 46 49 51 55 55 58 56 66 73 72 81 80 113 25 36 12 17 20 11 10 10 13 13 20 23 23 23 21 17 20 20 28 26 16 356 332 317 288 271 280 316 299 287 298 291 313 287 214 263 291 294 326 330 319 232 185 170 142 146 155 156 169 177 168 163 164 167 178 183 175
84 86 84 66 46 54 59 60 63 64 72 70 76 83 109 105 70 60 60 50 27 32 31 28 32 25 19 19 19 15 13 9 1 7 8 0 11 3 351 328 312 312 299 316 338 297 285 284 266 274 273 275 272 250 290 293 290 318 326 194 168 164 156 158 164 167 163 164 166 175 178 175 173 158
86 77 61 60 53 68 70 69 69 71 65 62 60 70 70 70 93 89 64 54 48 44 41 43 41 34 22 23 17 11 358 349 352 351 350 339 339 336 323 313 275 262 280 301 305 288 259 263 253 257 271 264 279 282 267 275 296 38 323 270 134 167 173 163 171 171 170 170 175 173 169 174 174 160
64 51 43 34 45 69 73 74 73 68 66 69 69 70 66 59 57 60 59 55 56 56 48 44 35 26 15 19 16 2 345 344 345 337 337 333 320 320 313 303 303 296 290 286 295 291 259 253 275 266 256 268 273 282 280 261 233 211 208 187 144 171 175 169 167 164 164 164 144 151 160 172 148 145
46 38 42 60 73 82 84 83 79 71 68 69 69 67 62 59 56 55 58 56 54 52 44 39 31 22 8 358 342 322 327 321 338 352 339 328 313 301 281 270 269 302 310 314 323 316 296 255 257 268 213 206 218 228 218 258 256 265 189 142 212 197 177 183 178 167 158 158 161 166 183 172 154 164
55 70 85 86 82 75 73 69 63 64 59 58 58 57 58 60 62 63 67 59 62 60 48 44 31 4 341 353 335 318 333 4 2 350 340 336 335 339 337 334 322 324 310 301 300 318 325 307 269 212 219 257 211 244 249 259 277 249 195 201 200 90 177 172 187 185 166 166 167 174 177 172 171 164
63 71 76 83 82 81 74 72 69 65 56 53 49 49 48 53 55 56 54 58 61 50 45 32 22 358 342 328 357 7 2 357 345 349 332 332 323 330 325 320 309 322 316 318 312 311 334 325 320 311 288 291 308 238 251 233 251 273 245 191 167 189 191 159 177 184 177 158 156 152 156 161 155 175
63 78 71 64 56 60 58 55 54 52 55 55 55 52 53 56 59 72 84 78 66 52 53 52 11 3 3 15 2 348 354 345 331 338 335 327 322 325 328 332 322 317 317 323 325 320 330 321 326 323 281 254 268 291 346 235 248 258 270 205 214 233 173 174 173 183 161 139 137 162 172 165 161 164
70 66 61 58 57 56 62 56 55 52 57 55 53 58 55 57 62 60 52 54 46 29 37 39 27 17 7 7 358 358 352 349 333 337 334 330 339 324 335 326 308 319 320 321 323 317 315 312 314 326 357 3 312 262 222 284 270 228 218 225 201 206 185 185 165 156 143 144 160 155 153 166 167 166
77 70 69 59 66 63 64 64 60 57 61 63 56 45 43 47 51 51 54 52 40 38 53 40 36 20 13 10 1 353 347 329 337 338 349 330 332 328 325 316 305 302 305 300 302 297 307 308 326 326 15 35 44 65 55 245 283 292 245 187 165 160 182 151 149 151 161 152 142 125 104 116 107 135
76 79 78 70 65 65 68 68 64 60 65 66 74 59 51 46 50 53 58 40 38 45 42 35 32 22 14 357 339 345 332 330 325 334 337 338 341 342 321 315 310 314 312 310 305 305 302 310 340 336 334 343 349 354 67 82 308 339 14 75 154 148 139 142 142 142 122 104 105 105 86 56 86 62
70 77 87 83 76 79 78 79 75 73 75 71 82 81 62 41 32 44 43 20 46 49 48 38 28 20 13 359 350 344 339 333 338 345 348 355 355 347 348 342 327 315 308 300 302 307 334 356 7 339 301 301 316 298 315 14 48 326 93 85 12 86 102 108 97 96 101 93 100 118 123 166 197 190
85 78 83 85 85 86 98 93 93 92 96 96 83 79 78 61 28 35 18 31 68 64 72 76 43 27 19 16 5 6 1 360 2 358 358 349 347 344 347 348 353 346 351 349 338 345 1 9 14 20 331 305 299 286 287 309 350 22 8 112 70 32 99 91 87 75 61 88 90 104 144 144 201 213
94 86 85 84 93 106 110 115 103 92 80 74 78 72 70 78 71 37 342 68 55 61 43 48 32 31 30 19 21 11 12 8 1 357 349 349 360 358 356 351 355 2 356 359 6 6 4 21 20 4 9 351 321 336 325 337 354 354 8 8 121 104 83 96 92 112 68 42 85 53 82 110 142 160
89 91 87 93 87 91 87 82 86 85 77 75 81 96 107 109 114 79 59 62 54 44 35 34 30 27 30 24 26 21 12 11 5 2 355 355 3 3 359 359 4 360 4 6 358 6 6 14 7 4 10 2 345 295 258 316 330 312 357 27 27 88 59 101 112 93 108 104 88 73 62 86 84 88
87 86 85 82 77 72 72 70 74 88 96 109 122 141 129 116 85 59 43 34 33 28 38 32 23 22 22 13 10 359 26 23 14 6 360 352 353 1 3 350 359 353 6 9 4 354 2 355 350 342 323 307 278 274 234 189 273 318 346 19 25 54 131 130 111 125 91 118 130 100 125 128 102 58
84 78 71 71 70 65 71 68 79 94 106 118 116 104 89 82 59 43 48 37 38 31 25 14 13 13 3 359 16 17 19 12 9 8 357 354 350 353 355 356 3 2 0 352 349 345 339 320 302 293 263 272 291 340 351 354 2 328 357 340 0 27 35 35 113 147 136 150 118 118 107 98 114 113
97 93 78 65 70 66 78 71 65 81 92 103 98 88 71 57 51 46 40 31 29 24 20 359 338 359 12 21 21 22 26 18 7 359 356 349 347 345 352 6 359 351 3 345 329 311 298 311 315 340 1 12 26 21 291 233 249 343 345 318 330 9 21 25 22 29 130 149 126 91 71 42 39 41
89 97 91 80 75 79 64 62 56 64 76 91 102 90 75 48 37 32 21 15 356 357 346 339 353 10 1 5 15 26 27 9 1 341 339 346 341 343 340 341 334 320 316 303 294 290 312 323 339 350 1 32 7 28 353 302 274 290 6 359 337 341 360 14 16 28 47 44 47 136 176 157 132 196
100 97 94 81 66 60 57 57 58 56 70 71 84 65 68 93 48 295 259 275 332 334 327 346 341 352 340 334 342 344 343 318 306 312 316 315 319 313 314 319 322 324 320 331 328 332 336 339 341 345 7 354 332 9 335 303 307 21 67 332 321 337 345 338 339 8 42 50 30 23 29 105 121 169
95 93 83 74 89 79 74 66 62 54 60 65 88 161 200 56 39 337 348 353 348 343 342 323 323 317 321 323 342 328 317 313 312 292 275 283 290 293 295 301 316 327 335 334 341 337 347 341 332 347 2 338 341 332 331 318 245 37 20 27 354 335 336 351 349 345 30 72 8 14 18 28 42 50